{"data":{"norad_id":65330,"intl_designator":"2025-189H","name":"STARLINK-34864","alt_names":[],"object_type":"PAYLOAD","status":"ACTIVE","operator":null,"country":"US","launch_date":"2025-08-27","launch_site_code":"AFETR","launch_vehicle":null,"mission":null,"orbit_class":"UNKNOWN","rcs_meters":null,"size_class":null,"mass_kg":null,"dimensions":null,"purposes":["comms"],"wikipedia_slug":null,"has_3d_model":false,"image_url":null,"decayed_at":null,"tle_current":{"epoch":"2026-09-20T13:58:33.326688Z","epoch_age_seconds":110459,"freshness":"FRESH","line1":"1 65330U 25189H   26263.58233017  .00001909  00000+0  73269-4 0  9999","line2":"2 65330  53.1587  20.2145 0001220 104.3609 255.7528 15.31695449 60962","mean_motion":15.31695449,"eccentricity":0.000122,"inclination_deg":53.1587,"raan_deg":20.2145,"arg_perigee_deg":104.3609,"mean_anomaly_deg":255.7528,"bstar":7.3269e-5,"rev_number":6096,"period_min":94.013467294698,"perigee_km":469.91799690491,"apogee_km":471.58912620193,"semimajor_km":6848.8905615534,"source":"CELESTRAK","updated_at":"2026-09-21T09:00:35.570168Z"}}}